User: anonymous   Login
Location: Unspecified
(0.0000°N, 0.0000°E)
Time: 22:38:10
(UTC+00:00)
Language:

TBA - TO BE ASSIGNED - Orbit

View from above orbital plane
View from above orbital plane
View from above satellite
View from above satellite

Ground track
Ground track

The orbit is defined by the following mean orbital elements,

1 67599U          26145.60290149 +.00000000 +00000-0 +66394-3 0 00009
2 67599  97.2850 210.7585 0000789 325.1727  34.9464 15.33458301    01
Epoch (UTC): 25 May 2026 14:28:10
Eccentricity: 0.0000789
inclination: 97.2850°
perigee height: 465 km
apogee height: 466 km
right ascension of ascending node: 210.7585°
argument of perigee: 325.1727°
revolutions per day: 15.33458301
mean anomaly at epoch: 34.9464°

The dashed part of the orbit path shows where the satellite is in the earth's shadow,  

DLR